EW1458 Weather Reports


Display with metric or nautical units.
time (UTC)temp
F
wind
direction
speed
MPH
gust
MPH
rain 1hr
in
rain 24hr
in
rain mn
in
humidity
%
barometer
mb
20260903064104 57 35 1.0 2.0 0.00 0.00 0.00 97 1020.9
20260903063617 57 1 1.0 2.0 0.00 0.00 0.00 97 1021.0
20260903063102 57 199 0.0 2.0 0.00 0.00 0.00 97 1021.0
20260903062559 57 154 0.0 2.0 0.00 0.00 0.00 97 1021.0
20260903062100 57 290 0.0 2.0 0.00 0.00 0.00 97 1020.7
20260903061550 57 178 0.0 2.0 0.00 0.00 0.00 97 1020.9
20260903061047 57 285 2.0 2.0 0.00 0.00 0.00 97 1020.6
20260903060547 57 28 2.0 2.0 0.00 0.00 0.00 97 1020.5
20260903060101 57 41 1.0 2.0 0.00 0.00 0.00 97 1020.8
20260903055545 57 270 1.0 2.0 0.00 0.00 0.00 97 1020.7
20260903055048 57 73 0.0 3.0 0.00 0.00 0.00 97 1020.6
20260903054545 57 310 2.0 3.0 0.00 0.00 0.00 97 1020.6
20260903054044 57 359 0.0 2.0 0.00 0.00 0.00 97 1020.6
20260903053543 57 343 1.0 2.0 0.00 0.00 0.00 96 1020.7
20260903053215 57 308 0.0 2.0 0.00 0.00 0.00 96 1020.7
20260903052043 58 110 0.0 2.0 0.00 0.00 0.00 96 1020.5
20260903051543 58 346 0.0 2.0 0.00 0.00 0.00 96 1020.8
20260903051502 58 346 0.0 2.0 0.00 0.00 0.00 96 1020.7
20260903050533 58 309 2.0 3.0 0.00 0.00 0.00 96 1020.8
20260903050029 58 34 0.0 3.0 0.00 0.00 0.00 96 1020.8
20260903045528 58 25 0.0 2.0 0.00 0.00 0.00 96 1020.7
20260903045027 58 4 1.0 2.0 0.00 0.00 0.00 96 1020.7
20260903044540 58 43 1.0 2.0 0.00 0.00 0.00 96 1020.7
20260903044024 58 44 2.0 2.0 0.00 0.00 0.00 95 1020.7
20260903043538 59 37 0.0 2.0 0.00 0.00 0.00 95 1020.8
20260903043036 59 30 1.0 2.0 0.00 0.00 0.00 95 1021.0
20260903042520 59 352 0.0 2.0 0.00 0.00 0.00 94 1020.9
20260903042015 59 18 1.0 2.0 0.00 0.00 0.00 94 1020.8
20260903041529 60 38 0.0 2.0 0.00 0.00 0.00 94 1021.0
20260903041012 60 25 0.0 1.0 0.00 0.00 0.00 93 1021.1
20260903040513 60 244 0.0 1.0 0.00 0.00 0.00 93 1021.0
20260903040004 60 19 0.0 1.0 0.00 0.00 0.00 93 1021.1
20260903035658 60 90 0.0 3.0 0.00 0.00 0.00 93 1021.0
20260903034457 60 324 2.0 2.0 0.00 0.00 0.00 94 1021.1
20260903033955 60 332 2.0 2.0 0.00 0.00 0.00 94 1021.1
20260903033456 60 29 1.0 2.0 0.00 0.00 0.00 94 1021.1
20260903032956 60 55 2.0 2.0 0.00 0.00 0.00 93 1021.3
20260903032449 60 46 2.0 2.0 0.00 0.00 0.00 93 1021.1
20260903031946 61 52 0.0 2.0 0.00 0.00 0.00 93 1021.0
20260903031433 61 253 0.0 2.0 0.00 0.00 0.00 93 1021.2
20260903030932 61 12 0.0 2.0 0.00 0.00 0.00 92 1020.9
20260903030426 61 332 0.0 2.0 0.00 0.00 0.00 92 1021.0
20260903030336 61 32 2.0 2.0 0.00 0.00 0.00 91 1020.9
20260903025424 61 317 0.0 3.0 0.00 0.00 0.00 91 1020.7
20260903024924 61 46 1.0 3.0 0.00 0.00 0.00 90 1021.0
20260903024422 61 328 0.0 2.0 0.00 0.00 0.00 91 1020.9
20260903023920 61 277 2.0 2.0 0.00 0.00 0.00 91 1021.0
20260903023421 62 341 0.0 3.0 0.00 0.00 0.00 91 1021.1
20260903022915 62 316 0.0 3.0 0.00 0.00 0.00 91 1020.9
20260903022831 62 308 2.0 2.0 0.00 0.00 0.00 91 1020.8
20260903021912 62 350 0.0 3.0 0.00 0.00 0.00 91 1020.7
20260903021409 61 48 2.0 3.0 0.00 0.00 0.00 91 1020.8
20260903020905 61 308 0.0 3.0 0.00 0.00 0.00 91 1020.8
20260903020401 61 177 0.0 2.0 0.00 0.00 0.00 91 1020.7
20260903015852 61 327 0.0 2.0 0.00 0.00 0.00 90 1020.6
20260903015345 62 66 0.0 2.0 0.00 0.00 0.00 90 1020.7
20260903014921 62 281 0.0 3.0 0.00 0.00 0.00 89 1020.7
20260903014848 62 15 0.0 2.0 0.00 0.00 0.00 90 1021.0
20260903014354 62 13 0.0 3.0 0.00 0.00 0.00 89 1020.7
20260903012321 62 352 1.0 4.0 0.00 0.00 0.00 88 1020.6
20260903011817 62 348 0.0 3.0 0.00 0.00 0.00 88 1020.9
20260903011318 62 64 1.0 3.0 0.00 0.00 0.00 88 1020.9
20260903010813 62 308 0.0 3.0 0.00 0.00 0.00 87 1020.8
20260903010301 62 308 0.0 3.0 0.00 0.00 0.00 87 1020.8
20260903005804 62 258 0.0 4.0 0.00 0.00 0.00 87 1020.9
20260903005252 61 354 0.0 4.0 0.00 0.00 0.00 87 1020.8
20260903005220 61 305 3.0 4.0 0.00 0.00 0.00 88 1021.0
20260903004246 61 311 3.0 4.0 0.00 0.00 0.00 88 1020.9
20260903003744 61 317 3.0 4.0 0.00 0.00 0.00 89 1020.7
20260903003239 61 329 0.0 3.0 0.00 0.00 0.00 89 1020.9
20260903002736 61 314 2.0 4.0 0.00 0.00 0.00 89 1020.9
20260903002240 61 308 3.0 4.0 0.00 0.00 0.00 90 1020.9
20260903002133 61 317 2.0 3.0 0.00 0.00 0.00 90 1020.9
20260903001228 61 306 1.0 2.0 0.00 0.00 0.00 90 1021.0
20260903000723 61 286 1.0 2.0 0.00 0.00 0.00 90 1021.1
20260903000226 61 229 2.0 2.0 0.00 0.00 0.00 90 1020.9
20260902235714 61 25 0.0 2.0 0.00 0.00 0.00 89 1021.1
20260902235226 61 43 1.0 2.0 0.00 0.00 0.00 89 1020.8
20260902234710 61 347 0.0 3.0 0.00 0.00 0.00 89 1021.0
20260902234209 61 350 1.0 3.0 0.00 0.00 0.00 89 1021.0
20260902233904 62 32 1.0 2.0 0.00 0.00 0.00 87 1020.9
20260902233747 62 30 0.0 2.0 0.00 0.00 0.00 88 1020.9
20260902232152 63 22 0.0 2.0 0.00 0.00 0.00 86 1021.0
20260902231650 63 13 0.0 2.0 0.00 0.00 0.00 85 1021.0
20260902231138 63 0 0.0 2.0 0.00 0.00 0.00 83 1021.1
20260902230649 64 30 0.0 2.0 0.00 0.00 0.00 83 1021.1
20260902230150 64 64 0.0 2.0 0.00 0.00 0.00 82 1020.9
20260902225631 65 56 1.0 2.0 0.00 0.00 0.00 81 1020.9
20260902225134 65 295 0.0 2.0 0.00 0.00 0.00 81 1020.9
20260902224650 65 19 0.0 1.0 0.00 0.00 0.00 77 1020.8
20260902224628 65 19 0.0 1.0 0.00 0.00 0.00 78 1020.9
20260902223618 66 25 0.0 1.0 0.00 0.00 0.00 76 1020.9
20260902223117 67 272 0.0 0.0 0.00 0.00 0.00 74 1021.0
20260902223009 67 272 0.0 1.0 0.00 0.00 0.00 72 1020.9
20260902222110 68 308 0.0 2.0 0.00 0.00 0.00 71 1020.8
20260902221609 68 323 0.0 2.0 0.00 0.00 0.00 69 1020.9
20260902221110 68 19 0.0 2.0 0.00 0.00 0.00 67 1020.7
20260902220600 69 0 0.0 2.0 0.00 0.00 0.00 66 1020.7
20260902220108 69 25 1.0 3.0 0.00 0.00 0.00 65 1020.8
20260902215554 69 25 1.0 5.0 0.00 0.00 0.00 64 1020.8
20260902215052 69 55 3.0 5.0 0.00 0.00 0.00 63 1020.5
20260902214551 70 40 1.0 5.0 0.00 0.00 0.00 63 1020.6
20260902214525 71 36 2.0 6.0 0.00 0.00 0.00 61 1020.8
20260902213549 71 250 1.0 6.0 0.00 0.00 0.00 60 1020.8
20260902213047 71 26 3.0 5.0 0.00 0.00 0.00 60 1020.8
20260902212543 71 34 2.0 6.0 0.00 0.00 0.00 60 1021.0
20260902212035 72 52 2.0 6.0 0.00 0.00 0.00 58 1020.8
20260902211531 72 34 3.0 6.0 0.00 0.00 0.00 58 1020.8
20260902211043 72 12 5.0 6.0 0.00 0.00 0.00 57 1020.9
20260902210527 73 14 4.0 7.0 0.00 0.00 0.00 57 1020.9
20260902210025 72 62 4.0 9.0 0.00 0.00 0.00 57 1021.0
20260902205523 73 11 3.0 9.0 0.00 0.00 0.00 58 1021.0
20260902205014 73 48 3.0 7.0 0.00 0.00 0.00 56 1021.0
20260902204513 73 59 4.0 8.0 0.00 0.00 0.00 56 1021.1
20260902204012 73 41 4.0 8.0 0.00 0.00 0.00 55 1021.0
20260902203512 73 138 2.0 9.0 0.00 0.00 0.00 57 1021.1
20260902203436 73 57 3.0 9.0 0.00 0.00 0.00 56 1021.0
20260902202502 74 11 1.0 6.0 0.00 0.00 0.00 54 1021.2
20260902201958 75 30 3.0 6.0 0.00 0.00 0.00 54 1021.0
20260902201531 74 13 1.0 6.0 0.00 0.00 0.00 54 1021.2
20260902200946 74 343 2.0 6.0 0.00 0.00 0.00 55 1021.1
20260902200444 74 96 2.0 6.0 0.00 0.00 0.00 55 1021.1
20260902195945 75 355 2.0 6.0 0.00 0.00 0.00 54 1021.3
20260902195445 75 62 6.0 6.0 0.00 0.00 0.00 53 1021.2
20260902194944 74 46 2.0 4.0 0.00 0.00 0.00 55 1021.3
20260902194441 74 4 1.0 3.0 0.00 0.00 0.00 55 1021.5
20260902193934 74 38 1.0 5.0 0.00 0.00 0.00 54 1021.4
20260902193434 74 308 2.0 7.0 0.00 0.00 0.00 55 1021.6
20260902192933 75 300 3.0 7.0 0.00 0.00 0.00 53 1021.3
20260902192431 75 293 2.0 5.0 0.00 0.00 0.00 54 1021.3
20260902191927 75 240 2.0 6.0 0.00 0.00 0.00 52 1021.5
20260902191428 75 104 2.0 6.0 0.00 0.00 0.00 51 1021.5
20260902190929 74 359 0.0 5.0 0.00 0.00 0.00 54 1021.4
20260902190415 74 313 2.0 6.0 0.00 0.00 0.00 56 1021.4
20260902185915 74 286 1.0 6.0 0.00 0.00 0.00 57 1021.5
20260902185419 74 291 1.0 6.0 0.00 0.00 0.00 57 1021.5
20260902184912 74 284 1.0 7.0 0.00 0.00 0.00 58 1021.5
20260902184412 74 293 2.0 7.0 0.00 0.00 0.00 58 1021.5
20260902183914 74 283 3.0 8.0 0.00 0.00 0.00 59 1021.5
20260902183819 74 298 6.0 8.0 0.00 0.00 0.00 58 1021.6
20260902182909 73 301 2.0 8.0 0.00 0.00 0.00 60 1021.6
20260902182411 73 313 5.0 8.0 0.00 0.00 0.00 59 1021.6
20260902181905 74 296 2.0 6.0 0.00 0.00 0.00 59 1021.6
20260902181359 74 296 2.0 6.0 0.00 0.00 0.00 59 1021.9
20260902180853 74 1 2.0 7.0 0.00 0.00 0.00 57 1021.7
20260902180348 74 315 4.0 7.0 0.00 0.00 0.00 57 1021.7
20260902175849 74 283 4.0 6.0 0.00 0.00 0.00 57 1021.8
20260902175812 75 41 5.0 6.0 0.00 0.00 0.00 58 1021.4
20260902175300 75 300 3.0 5.0 0.00 0.00 0.00 56 1021.7
20260902174343 75 124 0.0 6.0 0.00 0.00 0.00 53 1021.6
20260902173839 75 56 4.0 6.0 0.00 0.00 0.00 52 1021.7
20260902173337 76 57 5.0 5.0 0.00 0.00 0.00 52 1021.5
20260902172834 76 302 3.0 8.0 0.00 0.00 0.00 53 1021.7
20260902172332 76 340 1.0 8.0 0.00 0.00 0.00 53 1021.7
20260902171831 76 48 4.0 5.0 0.00 0.00 0.00 51 1021.6
20260902171756 74 277 2.0 5.0 0.00 0.00 0.00 55 1021.4
20260902170831 74 18 2.0 5.0 0.00 0.00 0.00 53 1021.6
20260902170340 74 42 1.0 5.0 0.00 0.00 0.00 57 1021.6
20260902165839 74 43 1.0 9.0 0.00 0.00 0.00 55 1021.6
20260902165319 74 67 1.0 9.0 0.00 0.00 0.00 53 1021.7
20260902165244 75 26 0.0 4.0 0.00 0.00 0.00 54 1021.8
20260902164319 76 55 0.0 4.0 0.00 0.00 0.00 54 1021.9
20260902163815 74 227 0.0 5.0 0.00 0.00 0.00 58 1021.9
20260902163311 74 56 2.0 5.0 0.00 0.00 0.00 55 1021.9
20260902162811 74 193 2.0 4.0 0.00 0.00 0.00 58 1021.8
20260902162307 73 8 2.0 6.0 0.00 0.00 0.00 58 1022.0
20260902161803 73 290 2.0 6.0 0.00 0.00 0.00 58 1022.0
20260902161305 74 72 1.0 4.0 0.00 0.00 0.00 59 1022.2
20260902161211 73 74 2.0 6.0 0.00 0.00 0.00 59 1022.1
20260902160306 72 4 2.0 9.0 0.00 0.00 0.00 58 1022.1
20260902160218 73 69 4.0 9.0 0.00 0.00 0.00 58 1022.1
20260902155306 73 244 0.0 6.0 0.00 0.00 0.00 59 1022.0
20260902154801 73 42 0.0 6.0 0.00 0.00 0.00 61 1022.0
20260902154302 73 318 2.0 4.0 0.00 0.00 0.00 59 1022.0
20260902153800 72 280 4.0 6.0 0.00 0.00 0.00 61 1021.9
20260902153256 71 10 2.0 6.0 0.00 0.00 0.00 63 1021.8
20260902152756 71 66 3.0 10.0 0.00 0.00 0.00 62 1022.1
20260902152257 71 63 2.0 10.0 0.00 0.00 0.00 62 1021.9
20260902151757 72 35 5.0 7.0 0.00 0.00 0.00 62 1021.8
20260902151719 71 43 7.0 9.0 0.00 0.00 0.00 62 1021.8
20260902150753 71 57 4.0 9.0 0.00 0.00 0.00 65 1021.9
20260902150252 71 48 7.0 9.0 0.00 0.00 0.00 65 1022.0
20260902145749 70 90 0.0 9.0 0.00 0.00 0.00 69 1021.9
20260902145248 69 23 2.0 9.0 0.00 0.00 0.00 68 1021.7
20260902144747 69 19 3.0 9.0 0.00 0.00 0.00 68 1021.8
20260902144249 70 95 2.0 6.0 0.00 0.00 0.00 68 1021.8
20260902143746 69 31 2.0 8.0 0.00 0.00 0.00 69 1021.9
20260902143246 69 50 4.0 8.0 0.00 0.00 0.00 70 1022.1
20260902142746 68 52 1.0 10.0 0.00 0.00 0.00 74 1022.0
20260902142245 67 36 6.0 10.0 0.00 0.00 0.00 72 1022.0
20260902141742 67 31 1.0 8.0 0.00 0.00 0.00 75 1022.2
20260902141244 67 33 5.0 8.0 0.00 0.00 0.00 74 1022.2
20260902140744 66 63 2.0 10.0 0.00 0.00 0.00 77 1022.4
20260902140243 66 40 5.0 11.0 0.00 0.00 0.00 76 1022.5
20260902135743 66 47 7.0 11.0 0.00 0.00 0.00 75 1022.4
20260902135644 66 50 6.0 9.0 0.00 0.00 0.00 76 1022.3
20260902134740 66 59 3.0 8.0 0.00 0.00 0.00 78 1022.4
20260902134238 65 95 4.0 8.0 0.00 0.00 0.00 79 1022.4
20260902133738 65 42 3.0 8.0 0.00 0.00 0.00 80 1022.4
20260902133234 65 53 3.0 7.0 0.00 0.00 0.00 84 1022.5
20260902132733 64 40 5.0 9.0 0.00 0.00 0.00 83 1022.5
20260902132232 63 15 7.0 9.0 0.00 0.00 0.00 85 1022.5
20260902131729 63 357 4.0 8.0 0.00 0.00 0.00 88 1022.7
20260902131227 62 52 4.0 8.0 0.00 0.00 0.00 90 1022.5
20260902130724 62 31 4.0 7.0 0.00 0.00 0.00 91 1022.6
20260902130215 61 49 5.0 7.0 0.00 0.00 0.00 96 1022.9
20260902130141 60 54 3.0 5.0 0.00 0.00 0.00 99 1023.0
20260902125208 59 88 4.0 6.0 0.00 0.00 0.00 99 1022.7
20260902124707 59 47 2.0 6.0 0.00 0.00 0.00 99 1022.7
20260902124206 58 37 0.0 5.0 0.00 0.00 0.00 99 1022.8
20260902124109 57 39 3.0 7.0 0.00 0.00 0.00 99 1022.7
20260902123210 56 14 3.0 7.0 0.00 0.00 0.00 99 1022.8
20260902122706 56 346 1.0 7.0 0.00 0.00 0.00 99 1022.9
20260902122203 56 24 2.0 5.0 0.00 0.00 0.00 99 1022.7
20260902121704 55 32 3.0 5.0 0.00 0.00 0.00 99 1022.8
20260902121202 55 37 4.0 5.0 0.00 0.00 0.00 99 1023.0
20260902121125 55 74 2.0 4.0 0.00 0.00 0.00 99 1022.9
20260902120200 54 36 1.0 4.0 0.00 0.00 0.00 99 1023.1
20260902115701 53 48 1.0 4.0 0.00 0.00 0.00 99 1023.0
20260902115201 53 52 3.0 4.0 0.00 0.00 0.00 99 1022.9
20260902114656 52 47 2.0 4.0 0.00 0.00 0.00 99 1023.0
20260902114151 52 50 3.0 3.0 0.00 0.00 0.00 99 1022.9
20260902113649 51 44 2.0 2.0 0.00 0.00 0.00 99 1023.0
20260902113149 51 37 0.0 2.0 0.00 0.00 0.00 99 1023.1
20260902112645 51 35 0.0 2.0 0.00 0.00 0.00 99 1023.1
20260902112145 51 60 2.0 2.0 0.00 0.00 0.00 99 1023.2
20260902111655 50 19 0.0 2.0 0.00 0.00 0.00 99 1023.0
20260902111143 50 54 1.0 2.0 0.00 0.00 0.00 99 1023.0
20260902110639 50 64 0.0 3.0 0.00 0.00 0.00 99 1023.0
20260902110153 49 24 0.0 4.0 0.00 0.00 0.00 99 1022.8
20260902110136 49 73 0.0 4.0 0.00 0.00 0.00 99 1022.8
20260902105131 49 55 2.0 4.0 0.00 0.00 0.00 99 1022.8
20260902104630 49 38 3.0 4.0 0.00 0.00 0.00 99 1022.9
20260902104125 48 14 2.0 4.0 0.00 0.00 0.00 99 1022.5
20260902103624 48 51 2.0 4.0 0.00 0.00 0.00 99 1022.6
20260902103120 48 34 2.0 3.0 0.00 0.00 0.00 99 1022.7
20260902102619 47 49 2.0 2.0 0.00 0.00 0.00 99 1022.6
20260902102118 47 46 2.0 2.0 0.00 0.00 0.00 99 1022.5
20260902102013 46 43 0.0 2.0 0.00 0.00 0.00 99 1022.7
20260902101111 46 20 0.0 1.0 0.00 0.00 0.00 99 1022.5
20260902100613 46 37 0.0 1.0 0.00 0.00 0.00 99 1022.4
20260902100534 46 117 0.0 1.0 0.00 0.00 0.00 99 1022.4
20260902095622 46 21 0.0 2.0 0.00 0.00 0.00 99 1022.3
20260902095119 46 78 0.0 2.0 0.00 0.00 0.00 99 1022.4
20260902094613 46 36 1.0 2.0 0.00 0.00 0.00 99 1022.2
20260902094112 45 12 2.0 2.0 0.00 0.00 0.00 98 1022.3
20260902093611 46 73 0.0 1.0 0.00 0.00 0.00 98 1022.2
20260902093108 46 99 0.0 1.0 0.00 0.00 0.00 98 1022.0
20260902092617 46 19 1.0 1.0 0.00 0.00 0.00 98 1022.2
20260902092102 46 0 0.0 2.0 0.00 0.00 0.00 98 1022.2
20260902091602 46 7 0.0 2.0 0.00 0.00 0.00 98 1022.1
20260902091114 46 110 0.0 1.0 0.00 0.00 0.00 98 1022.0
20260902091036 46 25 0.0 2.0 0.00 0.00 0.00 98 1022.1
20260902090539 46 338 0.0 2.0 0.00 0.00 0.00 98 1022.0
20260902085554 46 57 1.0 2.0 0.00 0.00 0.00 98 1021.9
20260902085051 46 31 1.0 2.0 0.00 0.00 0.00 98 1021.9
20260902084601 46 345 0.0 2.0 0.00 0.00 0.00 98 1021.8
20260902084058 46 4 0.0 2.0 0.00 0.00 0.00 98 1021.7
20260902083557 47 345 0.0 2.0 0.00 0.00 0.00 98 1021.9
20260902083044 47 17 0.0 1.0 0.00 0.00 0.00 98 1021.8
20260902082958 47 99 0.0 1.0 0.00 0.00 0.00 98 1021.7
20260902082055 47 96 0.0 2.0 0.00 0.00 0.00 98 1021.6
20260902081543 47 27 0.0 2.0 0.00 0.00 0.00 98 1021.6
20260902081046 47 34 1.0 2.0 0.00 0.00 0.00 98 1021.5
20260902080540 47 36 0.0 2.0 0.00 0.00 0.00 98 1021.6
20260902080454 47 9 0.0 2.0 0.00 0.00 0.00 98 1021.6
20260902075544 47 9 0.0 2.0 0.00 0.00 0.00 98 1021.2
20260902075533 47 64 0.0 1.0 0.00 0.00 0.00 98 1021.6
20260902074730 47 359 0.0 2.0 0.00 0.00 0.00 98 1021.4
20260902073539 48 319 0.0 2.0 0.00 0.00 0.00 98 1021.3
20260902073028 48 7 0.0 1.0 0.00 0.00 0.00 98 1021.4
20260902072525 48 46 0.0 1.0 0.00 0.00 0.00 98 1021.4
20260902072441 49 51 0.0 2.0 0.00 0.00 0.00 98 1021.0
20260902071524 49 51 0.0 4.0 0.00 0.00 0.00 98 1021.2
20260902071019 49 0 0.0 4.0 0.00 0.00 0.00 98 1021.1
20260902070520 49 356 1.0 3.0 0.00 0.00 0.00 98 1021.1
20260902070020 49 39 2.0 3.0 0.00 0.00 0.00 98 1021.0
20260902065519 49 38 1.0 3.0 0.00 0.00 0.00 98 1021.0
20260902065017 49 41 2.0 3.0 0.00 0.00 0.00 98 1020.7
20260902064938 49 33 2.0 3.0 0.00 0.00 0.00 98 1020.8